Timeline UpdatesTrip UpdatesNews PostsPvt Posts♥♥Travel TipsAdmin PostsConv PostsFollowed PostsChat RequestsBlog PostsPNR Posts

Disclaimer
Search
 
 
Fri Oct 31, 2014 15:24:32 ISTHomeTrainsΣChainsAtlasPNRForumGalleryNewsFAQTripsMembersLoginFeedback
No Recent News for this Train
Other Trains in the News **new
Latest...
.
Tue Oct 28, 2014 (03:58PM)
⇐ Return Journey: Train# 19023

19024/Firozpur - Mumbai Central Janta Express

Time-Table HAS CHANGED.
Oct 28 (3:58PM)
Change Departure Station:
Change Arrival Station:
Post a Train Travel TipPost a Train Travel Tip **new
Post a Comment/Question/Picture/VideoPost a Comment/Question/Picture/Video
Inaugural Run
Mon Oct 01, 1956
Pantry/Catering
✕ NO Pantry Car
✓ Catering Avbl
Catering from local vendors
RSA - Rake Sharing
Dedicated Rake.No RSA
Rake/Coach Composition
LOCO<SLR,GS,GS(MST),GS,S-1, S-2, S-3, S-4, S-5, S-6, S-7, S-8,GS,SLR,HCPV=14+1
Loco
TKD WDP-4/4B between FZR-NDLS, GZB WAP5 between NDLS-BCT
News    PNR    Forum    Time-Table    Availability    Fare Chart    Map    Arr/Dep History    Trips    Gallery    ΣChains    X/O    Timeline    
Travel Time: 7h 48m    22 halts    Distance: 316 km    Avg Speed: 40 km/hr
Type: Mail/Express
Zone: WR/Western
Departs @ 11:58
Platform# 2
SMTWTFS
Bharuch Junction/BH 
Arrives @ 19:46
Platform# 5
SMTWTFS
Mumbai Dadar Western/DDR 

22 halts. 65 intermediate Stations between Bharuch Junction and Mumbai Dadar Western

Show ALL intermediate Stations  Show Old Time-Table

#TrkCodeStation NameX/OArrivesAvgDepartsAvgHaltPFDay#KmSpeedElevZoneAddress
1|--|FZRFirozpur Cantt. Junction (5)  -05:10 05:05-11-1450.777200mNRFirozpur Cantt 152001, Punjab
2|--|FDKFaridkot (3)  05:34 05:30-05:36 05:32-2m11-1418.548202mNRFaridkot, Punjab
3|--|KKPKot Kapura Junction (3)  05:50 05:48-05:52 05:50-2m11-1405.7750mNRKotkapura, Punjab
4|--|GJUTGangsar Jaitu (3)  06:07 06:03-06:09 06:05-2m11-1389.447207mNRJaitu, Punjab
5|--|GNAGoneana Bhai Jagta (3)X  06:23-06:25-2m11-1375.334206mNRGoniana, Punjab
6|--|BTIBathinda Junction (6)  06:55 06:47-07:05 07:00-10 13m21-1363.089208mNRBathinda, Punjab
7!==!MAURMaur  07:31 07:24-07:33 07:26-2m--1-1327.467220mNRMaur Mandi, Punjab
8!==!KTKLKotli Kalan  07:39 07:35-07:41 07:36-2 1m--1-1317.327219mNRState Highway 12A, Punjab
9!==!MSZMansa  07:54 07:55-07:56 07:57-2m--1-1308.781222mNRMansa, Punjab
10!==!BLZBudhlada  08:09-08:11-2m--1-1292.671223mNRBudhlada, Punjab
11!==!BRZBareta  08:24-08:26-2m--1-1277.257223mNRBareta, Punjab
12!==!JHLJakhal Junction  08:43 08:41-08:45 08:43-2m--1-1263.056225mNRJakhal, Haryana
13|==|TUNTohana (2)  08:56-08:58-2m--1-1250.876232mNRTohana, Haryana
14|==|NRWNarwana Junction (4)X  09:18-09:20-2m--1-1225.370235mNRWay to Narwana, Haryana
15|==|UCAUchana  09:33-09:35-2m--1-1210.145225mNRDistrict Jind, Haryana
16|==|JINDJind Junction (3)  10:00-10:05-5m--1-1191.481222mNRJind 126102, Haryana
17|==|JNAJulana  10:27 10:24-10:29 10:26-2m--1-1165.865226mNRJulana, Haryana
18|==|ROKRohtak Junction (3)  11:05 10:55-11:08 11:00-3 5m--1-1134.381220mNRRohtak, Haryana
19/==/ISMIsmaila Haryana  11:26 11:14-11:28 11:16-2m--1-1115.542221mNRNational Highway 10, Haryana
20/==/SPZSampla  11:32 11:21-11:34 11:23-2m--1-1112.072222mNRSampla, Haryana
21/==/BGZBahadurgarhX  11:49 11:38-11:51 11:40-2m--1-1094.158220mNRBahadurgarh, Haryana
22/==/NNONangloi  12:03 11:53-12:05 11:55-2m--1-1081.628219mNRJJ Colony No 1, Delhi NCT
23/==/MGLPMangolpuri  12:09 12:02-12:11 12:04-2m--1-1078.421217mNROutter Ring Rd, Delhi NCT
24/==/SSBShakur BastiX  12:21 12:16-12:23 12:18-2m--1-1074.132216mNRPitampura, Delhi NCT
25/==/DKZDelhi KishanGanj (2)  12:36 12:31-12:38 12:33-2m--1-1067.211220mNRSarai Rohilla, Delhi NCT
26/==/NDLSNew Delhi (16)XO13:05 12:55-13:35 13:25-30m71-1063.325215mNRNew Delhi, Delhi NCT
27/==/NZMDelhi Hazrat Nizamuddin (7)XO  13:49 13:43-13:51 13:45-2m11-1055.932209mNRNew Delhi 110013, Delhi NCT
28/==/OKAOkhla (4)  13:57 13:52-13:59 13:53-2 1m--1-1052.260221mNRIshwar Nagar Mathura Road, Delhi NCT
29/==/TKDTuglakabad (2)XO  14:06 13:59-14:08 14:01-2m11-1046.244213mNRNear Tughlakabad Metro Station, Delhi NCT
30/==/FDBFaridabad (4)  14:23 14:16-14:25 14:18-2m31-1035.144206mNRold Faridabad, Haryana
31/==/BVHBallabgarh (5)X  14:43 14:29-14:45 14:31-2m--1-1027.027203mNRFaridabad, Haryana
32/==/PWLPalwal (8)  15:18-15:20-2m--1-1005.985200mNRPalwal, Haryana
33/==/KSVKosi Kalan (3)X  15:50-15:52-2m21-963.447189mNCRKosi Kalan, Uttar Pradesh
34/==/CHJChata (4)XO  16:03 16:05-16:05 16:07-2m--1-953.135 NCRChhata, Uttar Pradesh
35/==/MTJMathura Junction (10)  17:00-17:05-5m31-921.980179mNCRMathura, Uttar Pradesh
36/==/BTEBharatpur Junction (5)O  17:30-17:35-5m31-888.472174mWCRBharatpur, Rajasthan
37/==/BXNBayana Junction (3)X  18:10-18:15-5m--1-846.491198mWCRBayana, Rajasthan
38/==/FSPFateh SinghpuraX  18:28-18:30-2m--1-826.844223mWCRState Highway 1, Rajasthan
39/==/HANHindaun City (2)  18:48-18:50-2m--1-813.561230mWCRKarauli, Rajasthan
40/==/SMBJShri Mahabirji (3)X  19:00-19:02-2m--1-803.454240mWCRKarauli, Rajasthan
41/==/GGCGangapur City (3)  19:50 19:40-19:55 19:45-5m21-769.368270mWCRGangapur, Rajasthan
42/==/NNWNarayanpur Tatwara (2)  20:11 20:00-20:12 20:02-1 2m--1-752.363256mWCRSawai Madhopur, Rajasthan
43/==/MLZMalarnaXO  20:40 20:18-20:42 20:20-2m21-735.540236mWCRSawai Madhopur, Rajasthan
44/==/SWMSawai Madhopur Junction (4)  21:05-21:10-5m21-705.478266mWCRSawai Madhopur, Rajasthan
45/==/IDGIndargarh Sumerganj Mandi (2)  21:35 21:38-21:37 21:40-2m--1-669.166247mWCRIndargarh, Rajasthan
46/==/LKELakheri (3)X  21:47 21:50-21:49 21:52-2m--1-658.144228mWCRBundi, Rajasthan
47/==/KOTAKota Junction (5)  23:10 23:15-23:20-10 5m21-597.568256mWCRKota, Rajasthan
48/==/RMARamganj Mandi Junction (3)X  00:23-00:25-2m--2-526.357358mWCRRamganj Mandi, Rajasthan
49/==/JHWJhalawar Road (3)XO  00:38-00:40-2m--2-513.930361mWCRJhalawar City, Rajasthan
50/==/BWMBhawani Mandi (3)X  01:13-01:15-2m--2-497.474384mWCRBhawani Mandi, Madhya Pradesh
51/==/SGZShamgarh (3)  01:42-01:47-5m--2-463.950463mWCRMandsaur, Madhya Pradesh
52/==/SVASuwasra (2)O  02:03-02:05-2m--2-450.540450mWCRSuwasra, Madhya Pradesh
53/==/CMUChau Mahla (3)  02:28-02:30-2m12-435.120426mWCRJhalawar, Rajasthan
54/==/VMAVikramgarh Alot (2)X  03:36-03:38-2m12-413.340443mWCRKota Division, Madhya Pradesh
55/==/MEPMahidpur Road  04:13 04:14-04:15-2 1m--2-389.441493mWCRGogapur, Madhya Pradesh
56/==/NADNagda Junction (4)X  04:40-04:45-5m--2-372.464468mWRNagda, Madhya Pradesh
57/==/KUHKhachrod (2)X  04:56 04:58-04:58 05:00-2m--2-358.637497mWRUjjain, Madhya Pradesh
58/==/RTMRatlam Junction (7)X  05:45-06:00-15m42-330.973495mWRRatlam 457001, Madhya Pradesh
59/==/BMIBamnia (2)  06:35 06:37-06:37 06:38-2 1m--2-286.272392mWRBamnia, Madhya Pradesh
60/==/THDRThandla Road (2)  06:59 07:01-07:01 07:02-2 1m--2-258.660317mWRJhabua, Madhya Pradesh
61/==/MGNMeghnagar (3)  07:08 07:10-07:10 07:12-2m--2-250.686317mWRJhabua, Madhya Pradesh
62/==/DHDDahod (3)X  07:35-07:40-5m--2-217.568313mWRDahod, Gujarat
63/==/LMKLimkheda  08:07 08:09-08:09 08:10-2 1m--2-184.660205mWRLimkheda, Gujarat
64/==/PPDPiplod Junction  08:16 08:18-08:18 08:19-2 1m--2-176.679209mWRPiplod, Gujarat
65/==/SATSant Road (2)X  08:26 08:28-08:28 08:29-2 1m22-164.820169mWROrwara, Gujarat
66/==/GDAGodhra Junction (3)X  09:29 09:30-09:34 09:35-5m12-144.479122mWRGodhra, Gujarat
67/==/DRLDerol  09:53-09:55-2m--2-120.87981mWRKalol, Gujarat
68/==/SMLASamlaya Junction (3)  10:13-10:15-2m--2-97.15367mWRVadodara, Gujarat
69/==/BRCVadodara Junction (7)X10:45-10:55-10m12-70.58936mWRVadodara 390005, Gujarat
70/==/MYGMiyagam Karjan (2)  11:15-11:17-2m22-40.78329mWRKarjan, Gujarat
71/==/PLJPalej (4)  11:28-11:30-2m--2-25.48029mWRPalej, Gujarat
72/==/NIUNabipur (3)X  11:40-11:42-2m--2-12.15224mWRNabipur, Gujarat
73/==/BHBharuch Junction (5)»X  11:56-11:58-2m220.06219mWRBharuch, Gujarat
74/==/AKVAnkleshwar Junction (4)O  12:07-12:09-2m229.34819mWRAnkleshwar, Gujarat
75/==/PAOPanoli (3)  12:22-12:24-2m--219.66229mWRPanoli, Gujarat
76/==/KSBKosamba Junction (3)XO  12:32-12:34-2m2227.95830mWRKosamba, Gujarat
77/==/KIMKim (2)O  12:42-12:44-2m--235.73118mWRNH 8, Gujarat
78/==/STSurat (4)X  13:30-13:35-5m2259.37119mWRSurat 395001, Gujarat
79/==/MRLMaroli (3)O  13:53-13:55-2m2280.44615mWRMaroli, Gujarat
80/==/NVSNavsari (3)  14:06-14:08-2m2288.95514mWRNavsari, Gujarat
81/==/AMLAmalsad (3)O  14:25-14:27-2m22104.53712mWRAmalsad, Gujarat
82/==/BIMBilimora Junction (4)XO  14:36-14:38-2m22110.13611mWRBilimora, Gujarat
83/==/BLValsad (3)X  15:08-15:10-2m32128.04915mWRValsad, Gujarat
84/==/PADPardi (3)X  15:24 15:23-15:26 15:25-2m--2138.74519mWRValsad, Gujarat
85/==/UVDUdvada (3)  15:33-15:35-2m--2144.65218mWRUdvada, Gujarat
86/==/VAPIVapi (3)X  15:46-15:48-2m22154.23427mWRVapi, Gujarat
87/==/BLDBhilad (3)XO  16:08-16:10-2m--2165.56933mWRBhilad, Gujarat
88/==/SJNSanjan (3)XO  16:20-16:22-2m--2177.15422mWRSanjan, Gujarat
89/==/UBRUmbargam Road (3)X  16:28-16:30-2m--2182.44730mWRUmbergaon, Gujarat
90/==/DRDDahanu Road (5)XO  16:56-16:58-2m--2202.77412mWRDahanu, Maharashtra
91/==/VGNVangaon (3)O  17:08-17:10-2m--2215.07111mWRDist. Palghar, Maharashtra
92/==/BORBoisar (3)XO  17:18-17:20-2m32224.56117mWRBoisar Tel.no-02525-266626, Maharashtra
93/==/PLGPalghar (3)XO  17:31-17:33-2m22235.75719mWRPalghar, Maharashtra
94/==/VRVirar (8)XO  18:06-18:08-2m42266.9526mWRDist. Palghar, Maharashtra
95/==/BVIMumbai Borivali (8)  18:38-18:40-2m52292.72219mWRMumbai - 400092, Maharashtra
96/==/DDRMumbai Dadar Western (6)•  19:46-19:48-2m52316.4166mWRMumbai, Maharashtra
97/==/BCTMumbai Central (9)  20:10--52322.4-3mWRMumbai 400008, Maharashtra
Scroll to Top
Scroll to Bottom